{"data":{"norad_id":48687,"epoch":"2026-05-25T02:09:07.683264Z","epoch_age_seconds":61317,"freshness":"FRESH","line1":"1 48687U 21044BB  26145.08967226  .00004935  00000+0  17053-3 0  9991","line2":"2 48687  53.1590  69.6428 0001121  95.6543 264.4586 15.31729330276206","mean_motion":15.3172933,"eccentricity":0.0001121,"inclination_deg":53.159,"raan_deg":69.6428,"arg_perigee_deg":95.6543,"mean_anomaly_deg":264.4586,"bstar":0.00017053,"rev_number":27620,"period_min":94.011387769143,"perigee_km":469.88481610671,"apogee_km":471.42031472727,"semimajor_km":6848.789565417,"source":"CELESTRAK","updated_at":"2026-05-25T13:38:16.761974Z"}}